CZ-6A DEB, 54628

Orbit data source: Space-Track

CZ-6A DEB, 54628 is space debris in SSO originally from a launch on Fri, 11 Nov 2022 UTC launched from the Taiyaun Space Center, China (TSC). Debris objects in space refer to the collection of defunct objects orbiting the Earth. Examples of debris include non-operational satellites, rocket bodies, and fragments generated from explosions, collisions, or faulty payload assembly.

Loading next visibility...
Identifier
54628, 2022-151PE
Orbit
SSO
Country
Flag of CNCN / PRC
Related business
Manufacturer
SAST
Mission
Spacecraft
Bus & Motor
Unknown
Mass
Unknown
Launch date (UTC)
2022-11-11 (3 years ago)
Launch vehicle
Unknown
Launch site
Taiyaun Space Center, China (TSC)
Object type
Payload
Rocket body
Debris
Shape & HBR
Unknown shape, 0.1 m
Radar Cross Section
Small (<0.1 m²)

Expand to show TLE details & history
Last TLE update: 19 hours ago

TLE from 19 hours ago
0 CZ-6A DEB
1 54628U 22151PE  25348.82552934  .00000392  00000-0  36315-3 0  9991
2 54628  98.9251 299.0180 0183612 294.3669  63.8416 13.80892978154496
Epoch: 2025-12-14T19:48Z
TLE epoch observation values (Epoch: 2025-12-14T19:48:45.734Z)
Latitude
-0.00007°
Longitude
-81.90543°
Altitude
906.178 km
Speed
7.428 km/s
True Right ascension
19h 56m 04s
True Declination
0° 00' 00"
Sunlit
Object was in daylight at epoch
Visualization orbit readout
Latitude
Unknown
Longitude
Unknown
Altitude
Unknown
Speed
Unknown
Apparent Right ascension
Unknown
Apparent Declination
Unknown
Sunlit
N/A
Visualization observer readout
Local Sidereal Time
13:20:31
Azimuth
Unknown
Elevation
Unknown
Doppler factor
Unknown
Orbital elements
Apogee altitude
1,092.64 km
Perigee altitude
823.242 km
Semi-major axis
7,336.078 km
Eccentricity
0.01836
Inclination
98.9251°
RAAN
299.018°
Arg. of periapsis
294.3669°
True anomaly
65.74908°
Mean anomaly
63.8416°
Eccentric anomaly
64.79344°
Mean motion
3.4542 °/min
Orbital period
104.22 mins
BSTAR
0.00036315
Loading maneuver chart data...
Computing Atmospheric mass density...
Loading historical data...
Loading historical data...
Loading historical data...
Loading historical data...
Loading historical data...
Loading historical data...
Loading historical data...

Documentation

Showing up to 5 results
|